Terminal Aerodrome Forecast
Issued by NWS Wakefield, VA

Home | Current Version | Previous Version | Text Only | Print | Product List | Glossary On
Versions: 1 2 3 4 5 6 7 8 9 10 11 12 13 14 15 16 17 18 19 20 21 22 23 24 25
000
FTUS41 KAKQ 232300
TAFECG
TAF
KECG 232340Z 2400/2424 21008KT P6SM SCT250
     FM241200 25007KT P6SM SCT020 BKN120
     FM242000 34009KT P6SM BKN040 OVC100=

USA.gov is the U.S. government's official web portal to all federal, state and local government web resources and services.